Time,TemperatureF,DewpointF,PressureIn,WindDirection,WindDirectionDegrees,WindSpeedMPH,WindSpeedGustMPH,Humidity,HourlyPrecipIn,Conditions,Clouds,dailyrainin,SoftwareType,DateUTC
2013-01-09 00:05:00,33.3,26.3,30.07,SSE,163,1.0,3.0,75,0.00,CLR,OVC,0.00,WeatherDisplay:10.37,2013-01-09 05:05:00,
2013-01-09 00:10:00,33.3,26.2,30.06,SSE,167,1.0,3.0,75,0.00,CLR,OVC,0.00,WeatherDisplay:10.37,2013-01-09 05:10:00,
2013-01-09 00:15:00,33.2,26.1,30.06,SSE,165,1.0,4.0,75,0.00,CLR,OVC,0.00,WeatherDisplay:10.37,2013-01-09 05:15:00,
2013-01-09 00:20:00,33.2,26.1,30.06,SSE,154,2.0,7.0,75,0.00,CLR,OVC,0.00,WeatherDisplay:10.37,2013-01-09 05:20:00,
2013-01-09 00:25:00,33.2,26.1,30.05,SSE,165,2.0,4.0,75,0.00,CLR,OVC,0.00,WeatherDisplay:10.37,2013-01-09 05:25:00,
2013-01-09 00:30:00,33.2,26.1,30.05,SSE,165,1.0,4.0,75,0.00,CLR,OVC,0.00,WeatherDisplay:10.37,2013-01-09 05:30:00,
2013-01-09 00:35:00,33.1,26.0,30.06,South,177,1.0,3.0,75,0.00,CLR,OVC,0.00,WeatherDisplay:10.37,2013-01-09 05:35:00,
2013-01-09 00:40:00,33.0,26.0,30.06,South,191,1.0,2.0,75,0.00,CLR,OVC,0.00,WeatherDisplay:10.37,2013-01-09 05:40:00,
2013-01-09 00:45:00,33.0,25.9,30.05,South,189,0.0,3.0,75,0.00,CLR,OVC,0.00,WeatherDisplay:10.37,2013-01-09 05:45:00,
2013-01-09 00:50:00,32.9,25.8,30.05,South,179,1.0,3.0,75,0.00,CLR,OVC,0.00,WeatherDisplay:10.37,2013-01-09 05:50:00,
2013-01-09 00:55:00,32.9,25.8,30.05,SSE,164,1.0,3.0,75,0.00,CLR,OVC,0.00,WeatherDisplay:10.37,2013-01-09 05:55:00,
2013-01-09 01:00:00,32.9,25.8,30.04,SSE,157,0.0,5.0,75,0.00,FEW,OVC,0.00,WeatherDisplay:10.37,2013-01-09 06:00:00,
2013-01-09 01:05:00,33.0,25.9,30.04,SSE,160,1.0,3.0,75,0.00,FEW,OVC,0.00,WeatherDisplay:10.37,2013-01-09 06:05:00,
2013-01-09 01:10:00,33.2,25.8,30.03,South,171,1.0,6.0,74,0.00,FEW,OVC,0.00,WeatherDisplay:10.37,2013-01-09 06:10:00,
2013-01-09 01:15:00,33.4,26.0,30.03,South,178,2.0,4.0,74,0.00,FEW,OVC,0.00,WeatherDisplay:10.37,2013-01-09 06:15:00,
2013-01-09 01:20:00,33.6,25.9,30.03,South,179,1.0,3.0,73,0.00,FEW,OVC,0.00,WeatherDisplay:10.37,2013-01-09 06:20:00,
2013-01-09 01:25:00,33.7,26.0,30.03,South,170,1.0,4.0,73,0.00,FEW,OVC,0.00,WeatherDisplay:10.37,2013-01-09 06:25:00,
2013-01-09 01:30:00,33.8,26.1,30.02,South,180,1.0,4.0,73,0.00,FEW,OVC,0.00,WeatherDisplay:10.37,2013-01-09 06:30:00,
2013-01-09 01:35:00,33.9,26.2,30.01,South,181,2.0,7.0,73,0.00,FEW,OVC,0.00,WeatherDisplay:10.37,2013-01-09 06:35:00,
2013-01-09 01:40:00,34.2,26.4,30.00,South,171,2.0,5.0,73,0.00,FEW,OVC,0.00,WeatherDisplay:10.37,2013-01-09 06:40:00,
2013-01-09 01:45:00,34.5,26.7,30.00,South,175,3.0,6.0,73,0.00,FEW,OVC,0.00,WeatherDisplay:10.37,2013-01-09 06:45:00,
2013-01-09 01:50:00,34.8,27.0,30.01,SSW,194,2.0,5.0,73,0.00,FEW,OVC,0.00,WeatherDisplay:10.37,2013-01-09 06:50:00,
2013-01-09 01:55:00,35.1,27.3,30.01,SSW,199,2.0,7.0,73,0.00,FEW,OVC,0.00,WeatherDisplay:10.37,2013-01-09 06:55:00,
2013-01-09 02:00:00,35.4,27.6,30.01,South,187,3.0,5.0,73,0.00,CLR,OVC,0.00,WeatherDisplay:10.37,2013-01-09 07:00:00,
2013-01-09 02:05:00,35.6,27.8,30.01,SSW,192,6.0,12.0,73,0.00,CLR,OVC,0.00,WeatherDisplay:10.37,2013-01-09 07:05:00,
2013-01-09 02:10:00,36.0,28.2,30.01,SSW,199,6.0,12.0,73,0.00,CLR,OVC,0.00,WeatherDisplay:10.37,2013-01-09 07:10:00,
2013-01-09 02:15:00,36.2,28.4,30.01,SSW,205,3.0,7.0,73,0.00,CLR,OVC,0.00,WeatherDisplay:10.37,2013-01-09 07:15:00,
2013-01-09 02:20:00,36.3,28.5,30.00,SSW,195,3.0,8.0,73,0.00,CLR,OVC,0.00,WeatherDisplay:10.37,2013-01-09 07:20:00,
2013-01-09 02:25:00,36.4,28.6,30.00,South,188,6.0,10.0,73,0.00,CLR,OVC,0.00,WeatherDisplay:10.37,2013-01-09 07:25:00,
2013-01-09 02:30:00,36.5,29.0,30.01,South,182,5.0,8.0,74,0.00,CLR,OVC,0.00,WeatherDisplay:10.37,2013-01-09 07:30:00,
2013-01-09 02:35:00,36.5,29.0,30.01,South,180,3.0,8.0,74,0.00,CLR,OVC,0.00,WeatherDisplay:10.37,2013-01-09 07:35:00,
2013-01-09 02:40:00,36.6,29.1,30.01,South,180,5.0,9.0,74,0.00,CLR,OVC,0.00,WeatherDisplay:10.37,2013-01-09 07:40:00,
2013-01-09 02:45:00,36.7,29.2,30.00,South,189,5.0,8.0,74,0.00,CLR,OVC,0.00,WeatherDisplay:10.37,2013-01-09 07:45:00,
2013-01-09 02:50:00,36.9,29.4,30.01,South,189,3.0,9.0,74,0.00,CLR,OVC,0.00,WeatherDisplay:10.37,2013-01-09 07:50:00,
2013-01-09 02:55:00,37.0,29.5,30.00,South,188,6.0,11.0,74,0.00,CLR,OVC,0.00,WeatherDisplay:10.37,2013-01-09 07:55:00,
2013-01-09 03:00:00,37.1,29.6,30.00,SSW,192,3.0,12.0,74,0.00,CLR,OVC,0.00,WeatherDisplay:10.37,2013-01-09 08:00:00,
2013-01-09 03:05:00,37.3,29.8,30.00,SSW,195,6.0,9.0,74,0.00,CLR,OVC,0.00,WeatherDisplay:10.37,2013-01-09 08:05:00,
2013-01-09 03:10:00,37.5,30.3,30.00,South,184,5.0,9.0,75,0.00,CLR,OVC,0.00,WeatherDisplay:10.37,2013-01-09 08:10:00,
2013-01-09 03:15:00,37.6,30.4,30.00,South,179,3.0,13.0,75,0.00,CLR,OVC,0.00,WeatherDisplay:10.37,2013-01-09 08:15:00,
2013-01-09 03:20:00,37.8,30.3,30.00,South,188,7.0,12.0,74,0.00,CLR,OVC,0.00,WeatherDisplay:10.37,2013-01-09 08:20:00,
2013-01-09 03:25:00,38.0,30.4,30.00,SSW,196,6.0,9.0,74,0.00,CLR,OVC,0.00,WeatherDisplay:10.37,2013-01-09 08:25:00,
2013-01-09 03:30:00,38.2,30.6,29.99,SSW,196,5.0,10.0,74,0.00,CLR,OVC,0.00,WeatherDisplay:10.37,2013-01-09 08:30:00,
2013-01-09 03:35:00,38.3,30.7,30.00,SSW,201,3.0,8.0,74,0.00,CLR,OVC,0.00,WeatherDisplay:10.37,2013-01-09 08:35:00,
2013-01-09 03:40:00,38.4,30.8,30.00,SSW,199,3.0,7.0,74,0.00,CLR,OVC,0.00,WeatherDisplay:10.37,2013-01-09 08:40:00,
2013-01-09 03:45:00,38.4,30.8,30.00,SSW,201,3.0,12.0,74,0.00,CLR,OVC,0.00,WeatherDisplay:10.37,2013-01-09 08:45:00,
2013-01-09 03:50:00,38.4,30.9,29.99,SSW,206,3.0,7.0,74,0.00,CLR,OVC,0.00,WeatherDisplay:10.37,2013-01-09 08:50:00,
2013-01-09 03:55:00,38.4,31.2,29.98,SSW,194,2.0,6.0,75,0.00,CLR,OVC,0.00,WeatherDisplay:10.37,2013-01-09 08:55:00,
2013-01-09 04:00:00,38.4,31.2,30.00,SSW,194,3.0,8.0,75,0.00,BKN,OVC,0.00,WeatherDisplay:10.37,2013-01-09 09:00:00,
2013-01-09 04:05:00,38.4,31.5,29.99,SSW,198,2.0,5.0,76,0.00,BKN,OVC,0.00,WeatherDisplay:10.37,2013-01-09 09:05:00,
2013-01-09 04:10:00,38.5,31.9,29.98,SSW,192,5.0,8.0,77,0.00,BKN,OVC,0.00,WeatherDisplay:10.37,2013-01-09 09:10:00,
2013-01-09 04:15:00,38.6,32.3,29.99,SSW,198,3.0,8.0,78,0.00,BKN,OVC,0.00,WeatherDisplay:10.37,2013-01-09 09:15:00,
2013-01-09 04:20:00,38.7,32.7,29.98,South,191,6.0,8.0,79,0.00,BKN,OVC,0.00,WeatherDisplay:10.37,2013-01-09 09:20:00,
2013-01-09 04:25:00,39.0,33.0,29.99,SSW,203,8.0,13.0,79,0.00,BKN,OVC,0.00,WeatherDisplay:10.37,2013-01-09 09:25:00,
2013-01-09 04:30:00,39.2,33.2,29.99,SSW,212,6.0,10.0,79,0.00,BKN,OVC,0.00,WeatherDisplay:10.37,2013-01-09 09:30:00,
2013-01-09 04:35:00,39.4,33.4,29.98,SSW,199,5.0,9.0,79,0.00,BKN,OVC,0.00,WeatherDisplay:10.37,2013-01-09 09:35:00,
2013-01-09 04:40:00,39.5,33.5,29.98,SSW,205,5.0,9.0,79,0.00,BKN,OVC,0.00,WeatherDisplay:10.37,2013-01-09 09:40:00,
2013-01-09 04:45:00,39.7,33.7,29.97,SSW,197,5.0,12.0,79,0.00,BKN,OVC,0.00,WeatherDisplay:10.37,2013-01-09 09:45:00,
2013-01-09 04:50:00,39.8,33.8,29.97,SSW,204,5.0,9.0,79,0.00,BKN,OVC,0.00,WeatherDisplay:10.37,2013-01-09 09:50:00,
2013-01-09 04:55:00,39.8,33.8,29.98,SW,218,5.0,10.0,79,0.00,BKN,OVC,0.00,WeatherDisplay:10.37,2013-01-09 09:55:00,
2013-01-09 05:00:00,39.9,33.9,29.98,SSW,209,5.0,10.0,79,0.00,OVC,OVC,0.00,WeatherDisplay:10.37,2013-01-09 10:00:00,
2013-01-09 05:05:00,40.1,34.1,29.97,SSW,204,7.0,17.0,79,0.00,OVC,OVC,0.00,WeatherDisplay:10.37,2013-01-09 10:05:00,
2013-01-09 05:10:00,40.3,34.3,29.98,SSW,207,3.0,13.0,79,0.00,OVC,OVC,0.00,WeatherDisplay:10.37,2013-01-09 10:10:00,
2013-01-09 05:15:00,40.4,34.1,29.97,SSW,208,5.0,14.0,78,0.00,OVC,OVC,0.00,WeatherDisplay:10.37,2013-01-09 10:15:00,
2013-01-09 05:20:00,40.4,34.1,29.97,SW,214,6.0,12.0,78,0.00,OVC,OVC,0.00,WeatherDisplay:10.37,2013-01-09 10:20:00,
2013-01-09 05:25:00,40.4,34.1,29.98,SSW,213,5.0,14.0,78,0.00,OVC,OVC,0.00,WeatherDisplay:10.37,2013-01-09 10:25:00,
2013-01-09 05:30:00,40.6,34.3,29.97,SSW,211,7.0,13.0,78,0.00,OVC,OVC,0.00,WeatherDisplay:10.37,2013-01-09 10:30:00,
2013-01-09 05:35:00,40.8,34.5,29.98,SW,223,8.0,14.0,78,0.00,OVC,OVC,0.00,WeatherDisplay:10.37,2013-01-09 10:35:00,
2013-01-09 05:40:00,41.0,34.4,29.98,SW,228,7.0,13.0,77,0.00,OVC,OVC,0.00,WeatherDisplay:10.37,2013-01-09 10:40:00,
2013-01-09 05:45:00,41.1,34.1,29.98,SW,226,5.0,9.0,76,0.00,OVC,OVC,0.00,WeatherDisplay:10.37,2013-01-09 10:45:00,
2013-01-09 05:50:00,41.4,34.4,29.98,SW,230,8.0,18.0,76,0.00,OVC,OVC,0.00,WeatherDisplay:10.37,2013-01-09 10:50:00,
2013-01-09 05:55:00,41.5,34.5,29.98,SW,228,8.0,20.0,76,0.00,OVC,OVC,0.00,WeatherDisplay:10.37,2013-01-09 10:55:00,
2013-01-09 06:00:00,41.6,34.3,29.98,SW,224,7.0,15.0,75,0.00,OVC,OVC,0.00,WeatherDisplay:10.37,2013-01-09 11:00:00,
2013-01-09 06:05:00,41.7,34.7,29.98,SW,218,7.0,14.0,76,0.00,OVC,OVC,0.00,WeatherDisplay:10.37,2013-01-09 11:05:00,
2013-01-09 06:10:00,41.7,34.4,29.98,SW,224,7.0,17.0,75,0.00,OVC,OVC,0.00,WeatherDisplay:10.37,2013-01-09 11:10:00,
2013-01-09 06:15:00,41.8,34.5,29.98,SW,228,9.0,14.0,75,0.00,OVC,OVC,0.00,WeatherDisplay:10.37,2013-01-09 11:15:00,
2013-01-09 06:20:00,41.6,34.3,29.98,SW,234,8.0,13.0,75,0.00,OVC,OVC,0.00,WeatherDisplay:10.37,2013-01-09 11:20:00,
2013-01-09 06:25:00,41.6,34.6,29.98,SW,236,8.0,16.0,76,0.00,OVC,OVC,0.00,WeatherDisplay:10.37,2013-01-09 11:25:00,
2013-01-09 06:30:00,41.5,34.5,29.98,SW,233,9.0,20.0,76,0.00,OVC,OVC,0.00,WeatherDisplay:10.37,2013-01-09 11:30:00,
2013-01-09 06:35:00,41.4,34.4,29.98,SW,232,9.0,15.0,76,0.00,OVC,OVC,0.00,WeatherDisplay:10.37,2013-01-09 11:35:00,
2013-01-09 06:40:00,41.3,34.3,29.98,WSW,237,7.0,16.0,76,0.00,OVC,OVC,0.00,WeatherDisplay:10.37,2013-01-09 11:40:00,
2013-01-09 06:45:00,41.2,34.5,29.99,WSW,237,9.0,14.0,77,0.00,OVC,OVC,0.00,WeatherDisplay:10.37,2013-01-09 11:45:00,
2013-01-09 06:50:00,41.1,34.4,29.99,SW,234,10.0,16.0,77,0.00,OVC,OVC,0.00,WeatherDisplay:10.37,2013-01-09 11:50:00,
2013-01-09 06:55:00,41.0,34.3,29.99,SW,232,7.0,12.0,77,0.00,OVC,OVC,0.00,WeatherDisplay:10.37,2013-01-09 11:55:00,
2013-01-09 07:00:00,40.9,34.5,29.99,SW,233,7.0,14.0,78,0.00,FEW,OVC,0.00,WeatherDisplay:10.37,2013-01-09 12:00:00,
2013-01-09 07:05:00,40.6,34.3,30.00,WSW,237,7.0,15.0,78,0.00,FEW,OVC,0.00,WeatherDisplay:10.37,2013-01-09 12:05:00,
2013-01-09 07:10:00,40.6,34.3,30.01,WSW,241,6.0,12.0,78,0.00,FEW,OVC,0.00,WeatherDisplay:10.37,2013-01-09 12:10:00,
2013-01-09 07:15:00,40.5,34.2,30.01,WSW,245,7.0,14.0,78,0.00,FEW,OVC,0.00,WeatherDisplay:10.37,2013-01-09 12:15:00,
2013-01-09 07:20:00,40.4,34.1,30.01,WSW,246,6.0,8.0,78,0.00,FEW,OVC,0.00,WeatherDisplay:10.37,2013-01-09 12:20:00,
2013-01-09 07:25:00,40.5,34.5,30.02,WSW,239,6.0,12.0,79,0.00,FEW,OVC,0.00,WeatherDisplay:10.37,2013-01-09 12:25:00,
2013-01-09 07:30:00,40.5,34.5,30.02,WSW,239,8.0,14.0,79,0.00,FEW,OVC,0.00,WeatherDisplay:10.37,2013-01-09 12:30:00,
2013-01-09 07:35:00,40.6,34.3,30.02,WSW,248,6.0,12.0,78,0.00,FEW,OVC,0.00,WeatherDisplay:10.37,2013-01-09 12:35:00,
2013-01-09 07:40:00,40.6,34.3,30.03,WSW,250,6.0,12.0,78,0.00,FEW,OVC,0.00,WeatherDisplay:10.37,2013-01-09 12:40:00,
2013-01-09 07:45:00,40.5,34.2,30.04,WSW,250,6.0,12.0,78,0.00,FEW,OVC,0.00,WeatherDisplay:10.37,2013-01-09 12:45:00,
2013-01-09 07:50:00,40.4,34.4,30.04,WSW,255,5.0,12.0,79,0.00,FEW,OVC,0.00,WeatherDisplay:10.37,2013-01-09 12:50:00,
2013-01-09 07:55:00,40.2,34.2,30.05,WSW,256,6.0,14.0,79,0.00,FEW,OVC,0.00,WeatherDisplay:10.37,2013-01-09 12:55:00,
2013-01-09 08:00:00,40.3,34.3,30.05,West,260,8.0,14.0,79,0.00,FEW,OVC,0.00,WeatherDisplay:10.37,2013-01-09 13:00:00,
2013-01-09 08:05:00,40.1,34.1,30.05,WSW,258,5.0,12.0,79,0.00,FEW,OVC,0.00,WeatherDisplay:10.37,2013-01-09 13:05:00,
2013-01-09 08:10:00,40.0,34.0,30.05,West,260,7.0,13.0,79,0.00,FEW,OVC,0.00,WeatherDisplay:10.37,2013-01-09 13:10:00,
2013-01-09 08:15:00,39.8,33.8,30.06,WSW,257,6.0,12.0,79,0.00,FEW,OVC,0.00,WeatherDisplay:10.37,2013-01-09 13:15:00,
2013-01-09 08:20:00,39.7,33.7,30.07,WSW,258,5.0,9.0,79,0.00,FEW,OVC,0.00,WeatherDisplay:10.37,2013-01-09 13:20:00,
2013-01-09 08:25:00,39.6,33.6,30.07,West,263,6.0,13.0,79,0.00,FEW,OVC,0.00,WeatherDisplay:10.37,2013-01-09 13:25:00,
2013-01-09 08:30:00,39.6,33.6,30.07,WSW,258,5.0,12.0,79,0.00,FEW,OVC,0.00,WeatherDisplay:10.37,2013-01-09 13:30:00,
2013-01-09 08:35:00,39.5,33.5,30.08,WSW,258,3.0,10.0,79,0.00,FEW,OVC,0.00,WeatherDisplay:10.37,2013-01-09 13:35:00,
2013-01-09 08:40:00,39.3,33.6,30.08,WSW,257,5.0,8.0,80,0.00,FEW,OVC,0.00,WeatherDisplay:10.37,2013-01-09 13:40:00,
2013-01-09 08:45:00,39.2,33.6,30.08,WSW,255,6.0,10.0,80,0.00,FEW,OVC,0.00,WeatherDisplay:10.37,2013-01-09 13:45:00,
2013-01-09 08:50:00,39.1,33.5,30.08,WSW,256,5.0,8.0,80,0.00,FEW,OVC,0.00,WeatherDisplay:10.37,2013-01-09 13:50:00,
2013-01-09 08:55:00,39.1,33.5,30.09,WSW,250,5.0,9.0,80,0.00,FEW,OVC,0.00,WeatherDisplay:10.37,2013-01-09 13:55:00,
2013-01-09 09:00:00,39.1,33.1,30.09,WSW,247,2.0,10.0,79,0.00,BKN,OVC,0.00,WeatherDisplay:10.37,2013-01-09 14:00:00,
2013-01-09 09:05:00,39.0,33.4,30.09,WSW,245,5.0,9.0,80,0.00,BKN,OVC,0.00,WeatherDisplay:10.37,2013-01-09 14:05:00,
2013-01-09 09:10:00,39.0,33.0,30.10,WSW,250,3.0,7.0,79,0.00,BKN,OVC,0.00,WeatherDisplay:10.37,2013-01-09 14:10:00,
2013-01-09 09:15:00,38.9,33.0,30.10,WSW,249,5.0,8.0,79,0.00,BKN,OVC,0.00,WeatherDisplay:10.37,2013-01-09 14:15:00,
2013-01-09 09:20:00,39.0,33.0,30.10,WSW,245,3.0,12.0,79,0.00,BKN,OVC,0.00,WeatherDisplay:10.37,2013-01-09 14:20:00,
2013-01-09 09:25:00,38.9,32.9,30.10,SW,234,3.0,9.0,79,0.00,BKN,OVC,0.00,WeatherDisplay:10.37,2013-01-09 14:25:00,
2013-01-09 09:30:00,39.1,33.1,30.11,SW,236,6.0,10.0,79,0.00,BKN,OVC,0.00,WeatherDisplay:10.37,2013-01-09 14:30:00,
2013-01-09 09:35:00,39.2,33.2,30.11,WSW,239,3.0,8.0,79,0.00,BKN,OVC,0.00,WeatherDisplay:10.37,2013-01-09 14:35:00,
2013-01-09 09:40:00,39.3,33.0,30.11,WSW,241,5.0,12.0,78,0.00,BKN,OVC,0.00,WeatherDisplay:10.37,2013-01-09 14:40:00,
2013-01-09 09:45:00,39.4,33.1,30.10,SW,233,6.0,9.0,78,0.00,BKN,OVC,0.00,WeatherDisplay:10.37,2013-01-09 14:45:00,
2013-01-09 09:50:00,39.5,33.2,30.10,SW,228,6.0,8.0,78,0.00,BKN,OVC,0.00,WeatherDisplay:10.37,2013-01-09 14:50:00,
2013-01-09 09:55:00,39.7,33.4,30.11,SW,231,3.0,13.0,78,0.00,BKN,OVC,0.00,WeatherDisplay:10.37,2013-01-09 14:55:00,
2013-01-09 10:00:00,39.8,33.5,30.11,SW,232,6.0,11.0,78,0.00,SCT,OVC,0.00,WeatherDisplay:10.37,2013-01-09 15:00:00,
2013-01-09 10:05:00,40.0,33.4,30.11,SW,236,5.0,10.0,77,0.00,SCT,OVC,0.00,WeatherDisplay:10.37,2013-01-09 15:05:00,
2013-01-09 10:10:00,40.2,33.6,30.11,SW,233,5.0,9.0,77,0.00,SCT,OVC,0.00,WeatherDisplay:10.37,2013-01-09 15:10:00,
2013-01-09 10:15:00,40.4,33.8,30.11,SW,235,3.0,8.0,77,0.00,SCT,OVC,0.00,WeatherDisplay:10.37,2013-01-09 15:15:00,
2013-01-09 10:20:00,40.6,33.6,30.12,SW,233,7.0,13.0,76,0.00,SCT,OVC,0.00,WeatherDisplay:10.37,2013-01-09 15:20:00,
2013-01-09 10:25:00,40.8,33.5,30.12,SW,231,3.0,10.0,75,0.00,SCT,OVC,0.00,WeatherDisplay:10.37,2013-01-09 15:25:00,
2013-01-09 10:30:00,41.0,33.7,30.12,SW,235,6.0,12.0,75,0.00,SCT,OVC,0.00,WeatherDisplay:10.37,2013-01-09 15:30:00,
2013-01-09 10:35:00,41.2,33.6,30.11,SW,236,6.0,10.0,74,0.00,SCT,OVC,0.00,WeatherDisplay:10.37,2013-01-09 15:35:00,
2013-01-09 10:40:00,41.4,33.4,30.12,SW,231,8.0,14.0,73,0.00,SCT,OVC,0.00,WeatherDisplay:10.37,2013-01-09 15:40:00,
2013-01-09 10:45:00,41.6,33.6,30.12,SW,236,5.0,15.0,73,0.00,SCT,OVC,0.00,WeatherDisplay:10.37,2013-01-09 15:45:00,
2013-01-09 10:50:00,41.8,33.4,30.12,WSW,240,6.0,15.0,72,0.00,SCT,OVC,0.00,WeatherDisplay:10.37,2013-01-09 15:50:00,
2013-01-09 10:55:00,42.0,33.6,30.12,WSW,239,6.0,12.0,72,0.00,SCT,OVC,0.00,WeatherDisplay:10.37,2013-01-09 15:55:00,
2013-01-09 11:00:00,42.2,33.5,30.12,WSW,243,6.0,12.0,71,0.00,FEW,OVC,0.00,WeatherDisplay:10.37,2013-01-09 16:00:00,
2013-01-09 11:05:00,42.3,33.2,30.12,WSW,238,8.0,16.0,70,0.00,FEW,OVC,0.00,WeatherDisplay:10.37,2013-01-09 16:05:00,
2013-01-09 11:10:00,42.3,33.2,30.12,SW,234,6.0,15.0,70,0.00,FEW,OVC,0.00,WeatherDisplay:10.37,2013-01-09 16:10:00,
2013-01-09 11:15:00,42.4,33.3,30.12,WSW,237,8.0,13.0,70,0.00,FEW,OVC,0.00,WeatherDisplay:10.37,2013-01-09 16:15:00,
2013-01-09 11:20:00,42.5,33.4,30.12,WSW,238,8.0,13.0,70,0.00,FEW,OVC,0.00,WeatherDisplay:10.37,2013-01-09 16:20:00,
2013-01-09 11:25:00,42.5,33.0,30.13,WSW,239,7.0,16.0,69,0.00,FEW,OVC,0.00,WeatherDisplay:10.37,2013-01-09 16:25:00,
2013-01-09 11:30:00,42.7,33.2,30.13,WSW,237,8.0,20.0,69,0.00,FEW,OVC,0.00,WeatherDisplay:10.37,2013-01-09 16:30:00,
2013-01-09 11:40:00,43.0,32.8,30.13,WSW,237,8.0,16.0,67,0.00,FEW,OVC,0.00,WeatherDisplay:10.37,2013-01-09 16:40:00,
2013-01-09 11:45:00,43.3,33.1,30.13,WSW,238,8.0,16.0,67,0.00,FEW,OVC,0.00,WeatherDisplay:10.37,2013-01-09 16:45:00,
2013-01-09 11:50:00,43.4,33.5,30.13,SW,236,8.0,17.0,68,0.00,FEW,OVC,0.00,WeatherDisplay:10.37,2013-01-09 16:50:00,
2013-01-09 11:55:00,43.4,33.2,30.12,WSW,240,8.0,18.0,67,0.00,FEW,OVC,0.00,WeatherDisplay:10.37,2013-01-09 16:55:00,
2013-01-09 12:00:00,43.4,33.5,30.12,WSW,246,7.0,15.0,68,0.00,FEW,OVC,0.00,WeatherDisplay:10.37,2013-01-09 17:00:00,
2013-01-09 12:05:00,43.3,33.1,30.13,WSW,246,6.0,17.0,67,0.00,FEW,OVC,0.00,WeatherDisplay:10.37,2013-01-09 17:05:00,
2013-01-09 12:10:00,43.4,33.2,30.12,WSW,237,10.0,18.0,67,0.00,FEW,OVC,0.00,WeatherDisplay:10.37,2013-01-09 17:10:00,
2013-01-09 12:15:00,43.6,33.0,30.12,WSW,239,8.0,17.0,66,0.00,FEW,OVC,0.00,WeatherDisplay:10.37,2013-01-09 17:15:00,
2013-01-09 12:20:00,43.8,32.8,30.12,WSW,247,10.0,20.0,65,0.00,FEW,OVC,0.00,WeatherDisplay:10.37,2013-01-09 17:20:00,
2013-01-09 12:25:00,43.9,33.2,30.12,WSW,241,7.0,16.0,66,0.00,FEW,OVC,0.00,WeatherDisplay:10.37,2013-01-09 17:25:00,
2013-01-09 12:30:00,44.1,33.8,30.12,SW,235,7.0,15.0,67,0.00,FEW,OVC,0.00,WeatherDisplay:10.37,2013-01-09 17:30:00,
2013-01-09 12:35:00,44.1,33.1,30.12,WSW,242,9.0,16.0,65,0.00,FEW,OVC,0.00,WeatherDisplay:10.37,2013-01-09 17:35:00,
2013-01-09 12:40:00,44.2,33.2,30.12,WSW,240,8.0,15.0,65,0.00,FEW,OVC,0.00,WeatherDisplay:10.37,2013-01-09 17:40:00,
2013-01-09 12:45:00,44.3,32.9,30.12,SW,236,9.0,17.0,64,0.00,FEW,OVC,0.00,WeatherDisplay:10.37,2013-01-09 17:45:00,
2013-01-09 12:50:00,44.4,33.4,30.12,WSW,242,3.0,16.0,65,0.00,FEW,OVC,0.00,WeatherDisplay:10.37,2013-01-09 17:50:00,
2013-01-09 12:55:00,44.6,33.6,30.12,WSW,244,9.0,15.0,65,0.00,FEW,OVC,0.00,WeatherDisplay:10.37,2013-01-09 17:55:00,
2013-01-09 13:00:00,44.6,32.4,30.12,WSW,240,10.0,23.0,62,0.00,FEW,OVC,0.00,WeatherDisplay:10.37,2013-01-09 18:00:00,
2013-01-09 13:05:00,44.5,31.9,30.12,WSW,242,10.0,23.0,61,0.00,FEW,OVC,0.00,WeatherDisplay:10.37,2013-01-09 18:05:00,
2013-01-09 13:10:00,44.6,32.0,30.12,WSW,244,9.0,20.0,61,0.00,FEW,OVC,0.00,WeatherDisplay:10.37,2013-01-09 18:10:00,
2013-01-09 13:15:00,44.7,31.7,30.12,WSW,249,10.0,21.0,60,0.00,FEW,OVC,0.00,WeatherDisplay:10.37,2013-01-09 18:15:00,
2013-01-09 13:20:00,44.8,31.3,30.13,WSW,248,13.0,20.0,59,0.00,FEW,OVC,0.00,WeatherDisplay:10.37,2013-01-09 18:20:00,
2013-01-09 13:25:00,44.6,31.1,30.13,WSW,246,9.0,20.0,59,0.00,FEW,OVC,0.00,WeatherDisplay:10.37,2013-01-09 18:25:00,
2013-01-09 13:30:00,44.5,31.4,30.14,WSW,253,5.0,14.0,60,0.00,FEW,OVC,0.00,WeatherDisplay:10.37,2013-01-09 18:30:00,
2013-01-09 13:35:00,44.6,31.1,30.14,WSW,252,10.0,18.0,59,0.00,FEW,OVC,0.00,WeatherDisplay:10.37,2013-01-09 18:35:00,
2013-01-09 13:40:00,44.5,31.4,30.14,WSW,249,9.0,17.0,60,0.00,FEW,OVC,0.00,WeatherDisplay:10.37,2013-01-09 18:40:00,
2013-01-09 13:45:00,44.1,31.5,30.15,WSW,246,13.0,24.0,61,0.00,FEW,OVC,0.00,WeatherDisplay:10.37,2013-01-09 18:45:00,
2013-01-09 13:50:00,44.0,31.9,30.15,WSW,246,14.0,24.0,62,0.00,FEW,OVC,0.00,WeatherDisplay:10.37,2013-01-09 18:50:00,
2013-01-09 13:55:00,43.6,32.2,30.15,WSW,245,7.0,17.0,64,0.00,FEW,OVC,0.00,WeatherDisplay:10.37,2013-01-09 18:55:00,
2013-01-09 14:05:00,44.0,32.2,30.16,WSW,247,12.0,31.0,63,0.00,FEW,OVC,0.00,WeatherDisplay:10.37,2013-01-09 19:05:00,
2013-01-09 14:10:00,43.9,32.5,30.16,WSW,251,10.0,21.0,64,0.00,FEW,OVC,0.00,WeatherDisplay:10.37,2013-01-09 19:10:00,
2013-01-09 14:15:00,43.9,31.7,30.16,WSW,255,8.0,18.0,62,0.00,FEW,OVC,0.00,WeatherDisplay:10.37,2013-01-09 19:15:00,
2013-01-09 14:20:00,44.0,31.4,30.17,WSW,258,8.0,16.0,61,0.00,FEW,OVC,0.00,WeatherDisplay:10.37,2013-01-09 19:20:00,
2013-01-09 14:25:00,44.3,31.3,30.17,WSW,252,7.0,17.0,60,0.00,FEW,OVC,0.00,WeatherDisplay:10.37,2013-01-09 19:25:00,
2013-01-09 14:30:00,44.3,30.4,30.18,WSW,254,7.0,16.0,58,0.00,FEW,OVC,0.00,WeatherDisplay:10.37,2013-01-09 19:30:00,
2013-01-09 14:35:00,44.5,30.6,30.18,WSW,254,10.0,17.0,58,0.00,FEW,OVC,0.00,WeatherDisplay:10.37,2013-01-09 19:35:00,
2013-01-09 14:45:00,44.1,29.4,30.18,WSW,252,13.0,18.0,56,0.00,FEW,OVC,0.00,WeatherDisplay:10.37,2013-01-09 19:45:00,
2013-01-09 14:50:00,44.1,29.8,30.19,West,259,9.0,22.0,57,0.00,FEW,OVC,0.00,WeatherDisplay:10.37,2013-01-09 19:50:00,
2013-01-09 14:55:00,44.3,29.6,30.20,West,260,8.0,20.0,56,0.00,FEW,OVC,0.00,WeatherDisplay:10.37,2013-01-09 19:55:00,
2013-01-09 15:00:00,44.3,29.2,30.20,WSW,254,6.0,16.0,55,0.00,SCT,OVC,0.00,WeatherDisplay:10.37,2013-01-09 20:00:00,
2013-01-09 15:05:00,44.4,28.8,30.20,WSW,253,8.0,22.0,54,0.00,SCT,OVC,0.00,WeatherDisplay:10.37,2013-01-09 20:05:00,
2013-01-09 15:10:00,44.2,27.7,30.20,WSW,256,12.0,21.0,52,0.00,SCT,OVC,0.00,WeatherDisplay:10.37,2013-01-09 20:10:00,
2013-01-09 15:15:00,44.3,28.7,30.21,WSW,254,9.0,18.0,54,0.00,SCT,OVC,0.00,WeatherDisplay:10.37,2013-01-09 20:15:00,
2013-01-09 15:20:00,44.2,27.6,30.21,WSW,254,12.0,23.0,52,0.00,SCT,OVC,0.00,WeatherDisplay:10.37,2013-01-09 20:20:00,
2013-01-09 15:25:00,43.9,27.9,30.21,West,260,10.0,24.0,53,0.00,SCT,OVC,0.00,WeatherDisplay:10.37,2013-01-09 20:25:00,
2013-01-09 15:35:00,43.8,27.8,30.22,WSW,256,12.0,21.0,53,0.00,SCT,OVC,0.00,WeatherDisplay:10.37,2013-01-09 20:35:00,
2013-01-09 15:40:00,43.7,28.1,30.23,WSW,256,14.0,25.0,54,0.00,SCT,OVC,0.00,WeatherDisplay:10.37,2013-01-09 20:40:00,
2013-01-09 15:45:00,43.6,28.5,30.24,WSW,257,10.0,20.0,55,0.00,SCT,OVC,0.00,WeatherDisplay:10.37,2013-01-09 20:45:00,
2013-01-09 15:55:00,43.5,28.4,30.24,WSW,257,10.0,22.0,55,0.00,SCT,OVC,0.00,WeatherDisplay:10.37,2013-01-09 20:55:00,
2013-01-09 16:00:00,43.3,28.6,30.25,West,259,10.0,21.0,56,0.00,FEW,OVC,0.00,WeatherDisplay:10.37,2013-01-09 21:00:00,
2013-01-09 16:05:00,43.1,28.5,30.25,WSW,258,12.0,16.0,56,0.00,FEW,OVC,0.00,WeatherDisplay:10.37,2013-01-09 21:05:00,
2013-01-09 16:10:00,42.8,28.2,30.26,West,260,8.0,15.0,56,0.00,FEW,OVC,0.00,WeatherDisplay:10.37,2013-01-09 21:10:00,
2013-01-09 16:15:00,42.8,28.2,30.26,West,262,8.0,20.0,56,0.00,FEW,OVC,0.00,WeatherDisplay:10.37,2013-01-09 21:15:00,
2013-01-09 16:20:00,42.5,28.3,30.26,West,264,7.0,24.0,57,0.00,FEW,OVC,0.00,WeatherDisplay:10.37,2013-01-09 21:20:00,
2013-01-09 16:25:00,42.4,28.2,30.26,West,266,7.0,21.0,57,0.00,FEW,OVC,0.00,WeatherDisplay:10.37,2013-01-09 21:25:00,
2013-01-09 16:30:00,42.0,28.3,30.27,West,261,8.0,20.0,58,0.00,FEW,OVC,0.00,WeatherDisplay:10.37,2013-01-09 21:30:00,
2013-01-09 16:35:00,41.8,28.5,30.27,West,261,8.0,21.0,59,0.00,FEW,OVC,0.00,WeatherDisplay:10.37,2013-01-09 21:35:00,
2013-01-09 16:40:00,41.6,28.7,30.27,West,259,7.0,13.0,60,0.00,FEW,OVC,0.00,WeatherDisplay:10.37,2013-01-09 21:40:00,
2013-01-09 16:45:00,41.4,28.5,30.27,West,259,6.0,13.0,60,0.00,FEW,OVC,0.00,WeatherDisplay:10.37,2013-01-09 21:45:00,
2013-01-09 16:50:00,41.2,28.8,30.27,West,265,10.0,18.0,61,0.00,FEW,OVC,0.00,WeatherDisplay:10.37,2013-01-09 21:50:00,
2013-01-09 16:55:00,41.1,28.7,30.28,West,261,9.0,16.0,61,0.00,FEW,OVC,0.00,WeatherDisplay:10.37,2013-01-09 21:55:00,
2013-01-09 17:00:00,41.0,28.2,30.29,West,261,9.0,17.0,60,0.00,SCT,OVC,0.00,WeatherDisplay:10.37,2013-01-09 22:00:00,
2013-01-09 17:05:00,40.9,28.1,30.29,West,259,9.0,20.0,60,0.00,SCT,OVC,0.00,WeatherDisplay:10.37,2013-01-09 22:05:00,
2013-01-09 17:10:00,40.7,28.3,30.30,WSW,257,7.0,16.0,61,0.00,SCT,OVC,0.00,WeatherDisplay:10.37,2013-01-09 22:10:00,
2013-01-09 17:15:00,40.5,28.5,30.30,WSW,258,7.0,14.0,62,0.00,SCT,OVC,0.00,WeatherDisplay:10.37,2013-01-09 22:15:00,
2013-01-09 17:20:00,40.4,28.4,30.30,West,263,7.0,17.0,62,0.00,SCT,OVC,0.00,WeatherDisplay:10.37,2013-01-09 22:20:00,
2013-01-09 17:25:00,40.2,28.3,30.30,West,269,6.0,13.0,62,0.00,SCT,OVC,0.00,WeatherDisplay:10.37,2013-01-09 22:25:00,
2013-01-09 20:20:00,38.3,28.7,30.38,West,277,3.0,6.0,68,0.00,SCT,OVC,0.00,WeatherDisplay:10.37,2013-01-10 01:20:00,
2013-01-09 20:25:00,38.2,28.6,30.39,West,278,5.0,6.0,68,0.00,SCT,OVC,0.00,WeatherDisplay:10.37,2013-01-10 01:25:00,
2013-01-09 20:30:00,38.1,28.5,30.39,West,272,3.0,7.0,68,0.00,SCT,OVC,0.00,WeatherDisplay:10.37,2013-01-10 01:30:00,
2013-01-09 20:35:00,38.0,28.4,30.40,West,263,3.0,6.0,68,0.00,SCT,OVC,0.00,WeatherDisplay:10.37,2013-01-10 01:35:00,
2013-01-09 20:40:00,38.1,28.5,30.40,West,275,5.0,7.0,68,0.00,SCT,OVC,0.00,WeatherDisplay:10.37,2013-01-10 01:40:00,
2013-01-09 20:45:00,38.1,28.5,30.40,West,275,3.0,8.0,68,0.00,SCT,OVC,0.00,WeatherDisplay:10.37,2013-01-10 01:45:00,
2013-01-09 20:50:00,38.0,28.4,30.40,West,270,5.0,10.0,68,0.00,SCT,OVC,0.00,WeatherDisplay:10.37,2013-01-10 01:50:00,
2013-01-09 20:55:00,38.1,28.5,30.40,WNW,283,5.0,9.0,68,0.00,SCT,OVC,0.00,WeatherDisplay:10.37,2013-01-10 01:55:00,
2013-01-09 21:00:00,38.0,28.4,30.40,WNW,285,6.0,10.0,68,0.00,FEW,OVC,0.00,WeatherDisplay:10.37,2013-01-10 02:00:00,
2013-01-09 21:05:00,37.9,28.6,30.40,WNW,283,3.0,9.0,69,0.00,FEW,OVC,0.00,WeatherDisplay:10.37,2013-01-10 02:05:00,
2013-01-09 21:10:00,37.9,28.3,30.40,West,281,5.0,7.0,68,0.00,FEW,OVC,0.00,WeatherDisplay:10.37,2013-01-10 02:10:00,
2013-01-09 21:15:00,37.8,28.2,30.41,West,280,5.0,8.0,68,0.00,FEW,OVC,0.00,WeatherDisplay:10.37,2013-01-10 02:15:00,
2013-01-09 21:20:00,37.8,28.1,30.41,WNW,282,2.0,8.0,68,0.00,FEW,OVC,0.00,WeatherDisplay:10.37,2013-01-10 02:20:00,
2013-01-09 21:25:00,37.5,28.2,30.41,WNW,283,2.0,6.0,69,0.00,FEW,OVC,0.00,WeatherDisplay:10.37,2013-01-10 02:25:00,
2013-01-09 21:30:00,37.4,28.2,30.41,WNW,288,6.0,8.0,69,0.00,FEW,OVC,0.00,WeatherDisplay:10.37,2013-01-10 02:30:00,
2013-01-09 21:35:00,37.4,28.5,30.41,WNW,291,5.0,10.0,70,0.00,FEW,OVC,0.00,WeatherDisplay:10.37,2013-01-10 02:35:00,
2013-01-09 21:40:00,37.5,28.2,30.40,WNW,293,3.0,12.0,69,0.00,FEW,OVC,0.00,WeatherDisplay:10.37,2013-01-10 02:40:00,
2013-01-09 21:45:00,37.3,28.4,30.40,WNW,299,6.0,9.0,70,0.00,FEW,OVC,0.00,WeatherDisplay:10.37,2013-01-10 02:45:00,
2013-01-09 21:50:00,37.1,28.2,30.41,WNW,302,3.0,5.0,70,0.00,FEW,OVC,0.00,WeatherDisplay:10.37,2013-01-10 02:50:00,
2013-01-09 21:55:00,36.8,27.9,30.41,WNW,299,2.0,4.0,70,0.00,FEW,OVC,0.00,WeatherDisplay:10.37,2013-01-10 02:55:00,
2013-01-09 22:00:00,36.8,28.3,30.42,WNW,291,2.0,5.0,71,0.00,FEW,OVC,0.00,WeatherDisplay:10.37,2013-01-10 03:00:00,
2013-01-09 22:05:00,36.8,28.3,30.42,WNW,286,2.0,5.0,71,0.00,FEW,OVC,0.00,WeatherDisplay:10.37,2013-01-10 03:05:00,
2013-01-09 22:10:00,36.7,28.2,30.42,WNW,287,2.0,4.0,71,0.00,FEW,OVC,0.00,WeatherDisplay:10.37,2013-01-10 03:10:00,
2013-01-09 22:15:00,36.5,28.0,30.42,WNW,297,1.0,3.0,71,0.00,FEW,OVC,0.00,WeatherDisplay:10.37,2013-01-10 03:15:00,
2013-01-09 22:20:00,36.4,27.9,30.42,NW,304,0.0,2.0,71,0.00,FEW,OVC,0.00,WeatherDisplay:10.37,2013-01-10 03:20:00,
2013-01-09 22:25:00,36.2,27.7,30.42,WNW,303,0.0,2.0,71,0.00,FEW,OVC,0.00,WeatherDisplay:10.37,2013-01-10 03:25:00,
2013-01-09 22:30:00,35.9,27.8,30.42,WNW,303,0.0,1.0,72,0.00,FEW,OVC,0.00,WeatherDisplay:10.37,2013-01-10 03:30:00,
2013-01-09 22:35:00,35.7,27.6,30.42,WNW,303,0.0,1.0,72,0.00,FEW,OVC,0.00,WeatherDisplay:10.37,2013-01-10 03:35:00,
2013-01-09 22:40:00,35.6,27.7,30.42,WNW,303,0.0,1.0,73,0.00,FEW,OVC,0.00,WeatherDisplay:10.37,2013-01-10 03:40:00,
2013-01-09 22:45:00,35.3,27.5,30.42,WNW,303,0.0,0.0,73,0.00,FEW,OVC,0.00,WeatherDisplay:10.37,2013-01-10 03:45:00,
2013-01-09 22:50:00,35.1,27.3,30.42,WNW,303,0.0,0.0,73,0.00,FEW,OVC,0.00,WeatherDisplay:10.37,2013-01-10 03:50:00,
2013-01-09 22:55:00,35.0,27.6,30.42,WNW,303,0.0,2.0,74,0.00,FEW,OVC,0.00,WeatherDisplay:10.37,2013-01-10 03:55:00,
2013-01-09 23:00:00,35.0,27.5,30.41,WNW,303,1.0,2.0,74,0.00,CLR,OVC,0.00,WeatherDisplay:10.37,2013-01-10 04:00:00,
2013-01-09 23:05:00,34.6,27.5,30.41,WNW,303,2.0,3.0,75,0.00,CLR,OVC,0.00,WeatherDisplay:10.37,2013-01-10 04:05:00,
2013-01-09 23:10:00,34.6,27.5,30.41,WNW,303,1.0,2.0,75,0.00,CLR,OVC,0.00,WeatherDisplay:10.37,2013-01-10 04:10:00,
2013-01-09 23:15:00,34.3,27.2,30.41,WNW,303,0.0,2.0,75,0.00,CLR,OVC,0.00,WeatherDisplay:10.37,2013-01-10 04:15:00,
2013-01-09 23:20:00,33.6,26.9,30.41,WNW,303,0.0,1.0,76,0.00,CLR,OVC,0.00,WeatherDisplay:10.37,2013-01-10 04:20:00,
2013-01-09 23:25:00,32.8,26.4,30.41,WNW,303,1.0,2.0,77,0.00,CLR,OVC,0.00,WeatherDisplay:10.37,2013-01-10 04:25:00,
2013-01-09 23:30:00,32.6,26.8,30.41,WNW,303,1.0,3.0,79,0.00,CLR,OVC,0.00,WeatherDisplay:10.37,2013-01-10 04:30:00,
2013-01-09 23:35:00,32.9,27.1,30.41,WNW,303,2.0,3.0,79,0.00,CLR,OVC,0.00,WeatherDisplay:10.37,2013-01-10 04:35:00,
2013-01-09 23:40:00,33.3,27.2,30.40,WNW,303,1.0,2.0,78,0.00,CLR,OVC,0.00,WeatherDisplay:10.37,2013-01-10 04:40:00,
2013-01-09 23:45:00,33.4,27.3,30.41,WNW,303,0.0,2.0,78,0.00,CLR,OVC,0.00,WeatherDisplay:10.37,2013-01-10 04:45:00,
2013-01-09 23:50:00,33.3,26.9,30.41,WNW,303,0.0,0.0,77,0.00,CLR,OVC,0.00,WeatherDisplay:10.37,2013-01-10 04:50:00,
2013-01-09 23:55:00,33.1,26.6,30.41,WNW,303,0.0,0.0,77,0.00,CLR,OVC,0.00,WeatherDisplay:10.37,2013-01-10 04:55:00,